Precipitable_Water
0.25 0.21 0.23 0.28 0.34 0.28 0.27 0.24 0.22 0.21 0.19 0.19 0.18 0.16 0.12 0.14 0.15 0.18 0.18 0.18 0.22 0.18 0.16 0.16 0.16 0.15 0.14 0.15 0.19 0.20 0.23 0.25 0.28 0.29 0.30 0.30 0.28 0.28 0.27 0.31 0.38 0.45 0.47 0.46 0.44 0.50 0.44 0.67 0.73 0.73 0.70 0.83 0.98 0.98 0.95 0.78 0.83 0.89 0.84 0.88 0.95 1.07 1.14 1.23 1.26 1.33 1.34 1.30 1.33 1.34 1.28 1.30 1.49 1.58 1.61 1.68 1.60 1.58 1.54 1.46 1.41 1.41 1.43 1.42 1.38 1.34
0.25 0.22 0.33 0.31 0.30 0.28 0.26 0.23 0.23 0.22 0.21 0.19 0.19 0.19 0.18 0.17 0.17 0.27 0.32 0.28 0.24 0.23 0.23 0.24 0.23 0.20 0.20 0.22 0.25 0.29 0.30 0.29 0.30 0.31 0.35 0.35 0.34 0.35 0.38 0.40 0.36 0.39 0.44 0.44 0.45 0.47 0.50 0.59 0.68 0.70 0.69 0.59 0.71 0.88 0.91 0.85 0.82 0.92 0.95 0.95 0.95 1.05 1.14 1.20 1.25 1.29 1.29 1.28 1.23 1.15 1.19 1.28 1.32 1.36 1.41 1.49 1.53 1.57 1.61 1.54 1.46 1.44 1.43 1.40 1.36 1.34
0.29 0.35 0.37 0.36 0.27 0.23 0.24 0.26 0.28 0.25 0.23 0.22 0.20 0.21 0.21 0.24 0.26 0.27 0.29 0.35 0.33 0.29 0.27 0.28 0.25 0.28 0.31 0.30 0.35 0.33 0.37 0.39 0.38 0.37 0.39 0.41 0.41 0.44 0.45 0.45 0.45 0.44 0.43 0.44 0.45 0.47 0.51 0.57 0.61 0.61 0.62 0.61 0.52 0.74 0.81 0.86 0.82 0.92 0.99 1.02 1.05 1.08 1.12 1.23 1.31 1.31 1.25 1.27 1.28 1.23 1.12 1.25 1.29 1.37 1.41 1.41 1.48 1.49 1.56 1.64 1.60 1.57 1.46 1.41 1.38 1.36
0.31 0.37 0.34 0.31 0.26 0.23 0.23 0.29 0.31 0.27 0.26 0.27 0.27 0.30 0.32 0.36 0.29 0.31 0.37 0.36 0.34 0.32 0.29 0.32 0.29 0.28 0.35 0.37 0.32 0.42 0.38 0.37 0.37 0.41 0.42 0.43 0.44 0.46 0.47 0.47 0.46 0.43 0.41 0.42 0.43 0.46 0.50 0.53 0.56 0.59 0.59 0.56 0.48 0.45 0.82 0.92 0.91 0.87 0.91 0.99 1.07 1.12 1.13 1.18 1.27 1.30 1.34 1.34 1.31 1.27 1.26 1.25 1.32 1.29 1.37 1.45 1.51 1.47 1.48 1.49 1.64 1.68 1.56 1.46 1.40 1.37
0.34 0.39 0.38 0.28 0.24 0.26 0.24 0.25 0.26 0.29 0.29 0.29 0.32 0.30 0.26 0.28 0.33 0.31 0.32 0.34 0.35 0.33 0.34 0.32 0.29 0.34 0.38 0.33 0.36 0.40 0.41 0.42 0.44 0.45 0.44 0.44 0.44 0.46 0.48 0.48 0.48 0.45 0.45 0.43 0.44 0.45 0.50 0.53 0.53 0.53 0.58 0.57 0.51 0.45 0.60 0.77 0.96 0.89 0.89 0.93 1.00 1.04 1.12 1.17 1.24 1.28 1.33 1.35 1.33 1.31 1.30 1.30 1.30 1.31 1.32 1.34 1.34 1.38 1.38 1.35 1.39 1.56 1.61 1.55 1.43 1.37
0.35 0.36 0.30 0.29 0.26 0.29 0.30 0.32 0.37 0.32 0.25 0.32 0.36 0.36 0.31 0.30 0.30 0.31 0.32 0.29 0.28 0.30 0.38 0.35 0.26 0.30 0.41 0.38 0.37 0.40 0.43 0.43 0.45 0.43 0.43 0.45 0.46 0.46 0.44 0.46 0.49 0.48 0.49 0.48 0.46 0.48 0.51 0.56 0.60 0.58 0.58 0.53 0.60 0.55 0.51 0.68 0.80 0.90 0.95 0.97 1.03 1.03 1.06 1.15 1.25 1.31 1.34 1.31 1.28 1.24 1.18 1.12 1.08 1.11 1.17 1.15 1.15 1.20 1.25 1.24 1.28 1.39 1.55 1.57 1.53 1.43
0.36 0.32 0.30 0.29 0.29 0.29 0.30 0.35 0.34 0.27 0.26 0.26 0.31 0.34 0.33 0.32 0.30 0.28 0.28 0.30 0.27 0.23 0.33 0.40 0.29 0.29 0.39 0.38 0.39 0.43 0.45 0.42 0.45 0.45 0.46 0.49 0.50 0.52 0.52 0.53 0.54 0.53 0.52 0.52 0.51 0.52 0.53 0.57 0.60 0.61 0.60 0.55 0.57 0.58 0.52 0.46 0.67 0.81 0.94 1.01 0.92 1.04 1.03 1.11 1.22 1.28 1.29 1.29 1.33 1.28 1.20 1.15 1.13 1.05 1.13 1.23 1.27 1.25 1.28 1.34 1.36 1.39 1.45 1.54 1.53 1.48
0.33 0.32 0.31 0.29 0.31 0.33 0.37 0.33 0.32 0.28 0.23 0.24 0.33 0.33 0.31 0.31 0.29 0.31 0.31 0.30 0.29 0.38 0.36 0.39 0.38 0.31 0.30 0.37 0.44 0.43 0.42 0.44 0.47 0.47 0.51 0.54 0.55 0.55 0.56 0.56 0.55 0.56 0.56 0.54 0.51 0.52 0.54 0.57 0.60 0.60 0.63 0.60 0.60 0.62 0.55 0.48 0.44 0.56 0.81 0.95 1.07 1.06 1.05 1.07 1.18 1.23 1.16 1.13 1.26 1.31 1.28 1.24 1.19 1.18 1.15 1.24 1.27 1.34 1.35 1.31 1.31 1.39 1.38 1.40 1.54 1.53
0.38 0.35 0.27 0.30 0.31 0.35 0.30 0.30 0.30 0.29 0.25 0.28 0.32 0.35 0.34 0.33 0.33 0.32 0.29 0.29 0.33 0.36 0.28 0.34 0.45 0.30 0.29 0.35 0.43 0.45 0.43 0.44 0.45 0.49 0.51 0.54 0.53 0.54 0.54 0.54 0.54 0.56 0.56 0.57 0.55 0.54 0.54 0.57 0.60 0.61 0.61 0.64 0.65 0.64 0.58 0.52 0.51 0.47 0.57 0.82 0.93 1.04 1.06 1.04 1.17 1.23 1.25 1.19 1.17 1.27 1.34 1.27 1.24 1.24 1.25 1.29 1.31 1.27 1.34 1.35 1.37 1.41 1.42 1.45 1.54 1.56
0.36 0.31 0.31 0.30 0.29 0.30 0.32 0.31 0.32 0.32 0.27 0.32 0.34 0.37 0.39 0.38 0.35 0.33 0.31 0.31 0.34 0.26 0.25 0.28 0.30 0.25 0.28 0.36 0.40 0.43 0.42 0.42 0.44 0.47 0.49 0.50 0.50 0.50 0.53 0.53 0.54 0.54 0.56 0.58 0.59 0.61 0.61 0.63 0.64 0.65 0.64 0.65 0.67 0.67 0.62 0.61 0.56 0.53 0.49 0.54 0.80 0.96 1.09 1.14 1.15 1.21 1.22 1.26 1.23 1.14 1.22 1.30 1.28 1.26 1.29 1.30 1.25 1.26 1.32 1.33 1.37 1.36 1.39 1.42 1.50 1.56
0.31 0.33 0.29 0.29 0.27 0.29 0.32 0.32 0.33 0.34 0.32 0.35 0.35 0.33 0.36 0.39 0.39 0.36 0.33 0.32 0.29 0.23 0.28 0.32 0.28 0.26 0.24 0.34 0.36 0.36 0.37 0.42 0.44 0.46 0.48 0.48 0.49 0.49 0.50 0.51 0.51 0.53 0.54 0.54 0.56 0.59 0.60 0.64 0.66 0.66 0.63 0.64 0.66 0.68 0.66 0.62 0.59 0.56 0.53 0.50 0.48 0.75 1.03 1.08 1.07 1.16 1.14 1.22 1.21 1.14 1.15 1.18 1.29 1.31 1.25 1.22 1.19 1.21 1.26 1.30 1.35 1.34 1.31 1.34 1.44 1.56
0.30 0.33 0.36 0.32 0.31 0.32 0.34 0.33 0.36 0.38 0.35 0.34 0.29 0.29 0.29 0.33 0.39 0.35 0.35 0.38 0.28 0.23 0.28 0.27 0.26 0.29 0.20 0.29 0.37 0.42 0.46 0.46 0.45 0.43 0.44 0.46 0.47 0.48 0.50 0.51 0.53 0.54 0.53 0.53 0.53 0.54 0.56 0.58 0.62 0.65 0.63 0.63 0.64 0.63 0.64 0.62 0.61 0.58 0.55 0.54 0.49 0.49 0.78 1.02 1.15 1.04 1.04 1.17 1.17 1.12 1.13 1.21 1.24 1.23 1.20 1.14 1.12 1.17 1.19 1.22 1.29 1.34 1.27 1.25 1.39 1.58
0.32 0.37 0.37 0.34 0.36 0.31 0.33 0.34 0.38 0.37 0.38 0.33 0.27 0.28 0.25 0.24 0.24 0.25 0.25 0.22 0.25 0.22 0.25 0.27 0.27 0.29 0.29 0.34 0.39 0.43 0.45 0.47 0.49 0.47 0.46 0.46 0.46 0.48 0.50 0.51 0.54 0.56 0.57 0.57 0.57 0.58 0.58 0.55 0.56 0.59 0.62 0.64 0.64 0.62 0.63 0.63 0.61 0.60 0.59 0.58 0.52 0.51 0.57 0.89 0.99 1.18 1.00 1.00 1.07 1.10 1.12 1.16 1.22 1.26 1.22 1.16 1.11 1.17 1.22 1.21 1.19 1.24 1.25 1.25 1.31 1.48
0.40 0.36 0.37 0.38 0.36 0.36 0.33 0.23 0.26 0.27 0.32 0.31 0.25 0.25 0.23 0.22 0.20 0.17 0.21 0.22 0.23 0.26 0.29 0.29 0.30 0.28 0.35 0.38 0.45 0.43 0.47 0.49 0.49 0.50 0.49 0.49 0.48 0.48 0.50 0.53 0.56 0.57 0.58 0.58 0.58 0.58 0.58 0.61 0.63 0.61 0.60 0.63 0.64 0.64 0.63 0.65 0.64 0.61 0.61 0.58 0.53 0.53 0.57 0.68 0.91 0.98 1.07 1.04 1.05 0.99 0.99 1.11 1.33 1.39 1.35 1.31 1.18 1.20 1.25 1.23 1.18 1.17 1.19 1.20 1.25 1.42
0.30 0.31 0.35 0.34 0.35 0.34 0.33 0.30 0.27 0.25 0.29 0.30 0.30 0.28 0.24 0.22 0.20 0.17 0.20 0.19 0.19 0.23 0.26 0.30 0.25 0.25 0.27 0.37 0.46 0.46 0.49 0.50 0.50 0.50 0.50 0.51 0.51 0.51 0.51 0.55 0.56 0.58 0.59 0.58 0.56 0.56 0.56 0.58 0.61 0.64 0.65 0.64 0.66 0.67 0.65 0.63 0.64 0.64 0.60 0.59 0.56 0.52 0.53 0.60 0.67 0.82 0.99 1.07 1.07 0.99 0.98 1.10 1.23 1.33 1.45 1.32 1.23 1.16 1.22 1.25 1.22 1.22 1.28 1.31 1.40 1.51
0.35 0.38 0.40 0.39 0.33 0.33 0.30 0.34 0.32 0.29 0.31 0.31 0.30 0.33 0.26 0.22 0.29 0.20 0.20 0.23 0.20 0.22 0.26 0.27 0.27 0.33 0.35 0.45 0.46 0.47 0.46 0.45 0.47 0.45 0.47 0.48 0.50 0.51 0.51 0.52 0.55 0.56 0.57 0.57 0.55 0.55 0.56 0.58 0.59 0.61 0.65 0.66 0.66 0.68 0.69 0.66 0.63 0.60 0.58 0.58 0.59 0.55 0.55 0.54 0.59 0.62 0.76 0.90 1.03 1.11 1.12 1.11 1.16 1.19 1.17 1.24 1.33 1.24 1.24 1.38 1.38 1.30 1.33 1.35 1.45 1.54
0.35 0.33 0.39 0.39 0.36 0.33 0.32 0.32 0.34 0.32 0.23 0.29 0.30 0.27 0.24 0.33 0.31 0.26 0.26 0.27 0.26 0.25 0.24 0.29 0.31 0.35 0.42 0.43 0.44 0.40 0.39 0.41 0.40 0.41 0.44 0.48 0.49 0.51 0.52 0.53 0.56 0.58 0.58 0.60 0.60 0.59 0.60 0.60 0.61 0.61 0.63 0.67 0.67 0.67 0.69 0.71 0.69 0.63 0.59 0.60 0.57 0.55 0.56 0.57 0.56 0.62 0.62 0.74 0.88 0.95 1.06 1.07 1.13 1.14 1.14 1.10 1.14 1.17 1.18 1.27 1.35 1.33 1.32 1.35 1.38 1.41
0.30 0.34 0.40 0.38 0.37 0.38 0.37 0.34 0.37 0.38 0.32 0.31 0.27 0.25 0.30 0.36 0.34 0.26 0.20 0.22 0.21 0.20 0.20 0.27 0.26 0.31 0.31 0.28 0.38 0.34 0.35 0.35 0.34 0.39 0.38 0.42 0.48 0.50 0.52 0.56 0.57 0.57 0.59 0.62 0.63 0.63 0.63 0.63 0.62 0.62 0.63 0.64 0.68 0.68 0.68 0.70 0.70 0.65 0.61 0.59 0.58 0.60 0.56 0.56 0.60 0.57 0.62 0.69 0.71 0.81 0.93 1.00 0.97 1.03 1.07 1.06 1.02 1.04 1.10 1.21 1.33 1.34 1.32 1.28 1.34 1.43
0.39 0.26 0.35 0.38 0.35 0.37 0.35 0.40 0.38 0.45 0.37 0.29 0.25 0.35 0.25 0.23 0.25 0.27 0.24 0.17 0.18 0.18 0.20 0.22 0.25 0.29 0.30 0.29 0.31 0.30 0.30 0.31 0.33 0.36 0.37 0.36 0.41 0.45 0.50 0.54 0.56 0.57 0.59 0.59 0.60 0.61 0.61 0.61 0.61 0.61 0.61 0.63 0.66 0.71 0.70 0.71 0.72 0.69 0.66 0.64 0.65 0.64 0.61 0.53 0.53 0.57 0.58 0.57 0.71 0.74 0.82 0.95 1.00 0.98 1.00 1.03 1.07 1.12 1.20 1.20 1.22 1.26 1.29 1.35 1.37 1.36
0.39 0.25 0.31 0.42 0.36 0.41 0.40 0.39 0.32 0.37 0.41 0.38 0.36 0.33 0.34 0.30 0.25 0.24 0.25 0.21 0.21 0.19 0.18 0.19 0.20 0.25 0.32 0.31 0.31 0.29 0.30 0.29 0.30 0.30 0.33 0.34 0.35 0.40 0.46 0.51 0.54 0.56 0.56 0.56 0.56 0.57 0.58 0.60 0.62 0.63 0.61 0.60 0.64 0.70 0.73 0.71 0.73 0.71 0.66 0.64 0.68 0.70 0.64 0.58 0.56 0.58 0.57 0.60 0.58 0.72 0.85 0.89 0.99 1.06 1.04 1.00 1.03 1.06 1.10 1.14 1.17 1.24 1.25 1.24 1.28 1.35
0.34 0.38 0.22 0.33 0.44 0.39 0.30 0.37 0.31 0.30 0.27 0.31 0.30 0.26 0.29 0.27 0.30 0.26 0.30 0.24 0.21 0.19 0.18 0.17 0.16 0.24 0.32 0.35 0.32 0.30 0.30 0.31 0.29 0.29 0.30 0.34 0.35 0.37 0.44 0.50 0.51 0.54 0.55 0.56 0.55 0.55 0.57 0.60 0.61 0.62 0.63 0.63 0.64 0.71 0.77 0.75 0.74 0.76 0.74 0.69 0.69 0.69 0.68 0.64 0.63 0.59 0.54 0.57 0.62 0.66 0.73 0.86 0.90 0.99 1.07 1.04 1.01 1.00 1.05 1.10 1.15 1.14 1.18 1.28 1.24 1.17
0.27 0.31 0.26 0.31 0.35 0.34 0.36 0.44 0.39 0.34 0.31 0.31 0.30 0.25 0.27 0.24 0.20 0.19 0.18 0.25 0.25 0.20 0.19 0.18 0.17 0.27 0.34 0.36 0.33 0.32 0.33 0.32 0.32 0.30 0.30 0.35 0.37 0.39 0.41 0.49 0.52 0.53 0.54 0.56 0.56 0.54 0.58 0.61 0.62 0.64 0.65 0.64 0.63 0.67 0.74 0.76 0.76 0.76 0.75 0.74 0.74 0.72 0.69 0.65 0.63 0.64 0.67 0.70 0.67 0.66 0.70 0.73 0.87 0.95 0.99 1.02 1.04 1.00 1.01 1.07 1.13 1.13 1.16 1.22 1.25 1.15
0.37 0.30 0.26 0.27 0.33 0.36 0.42 0.42 0.41 0.39 0.38 0.35 0.35 0.31 0.32 0.29 0.24 0.22 0.15 0.20 0.22 0.22 0.24 0.23 0.18 0.24 0.35 0.36 0.33 0.33 0.35 0.35 0.32 0.29 0.29 0.32 0.39 0.41 0.41 0.45 0.52 0.53 0.54 0.56 0.55 0.56 0.60 0.62 0.66 0.69 0.69 0.66 0.63 0.67 0.72 0.76 0.76 0.76 0.77 0.76 0.73 0.71 0.69 0.67 0.66 0.67 0.70 0.69 0.66 0.65 0.68 0.75 0.82 0.95 1.02 1.05 1.11 1.10 1.00 1.00 1.13 1.25 1.19 1.19 1.22 1.18
0.42 0.26 0.25 0.31 0.39 0.44 0.48 0.47 0.48 0.46 0.46 0.43 0.42 0.39 0.35 0.28 0.26 0.25 0.24 0.25 0.19 0.21 0.20 0.22 0.19 0.26 0.35 0.37 0.35 0.36 0.36 0.33 0.33 0.32 0.30 0.32 0.40 0.43 0.41 0.44 0.51 0.50 0.51 0.53 0.54 0.57 0.61 0.64 0.71 0.74 0.72 0.68 0.64 0.69 0.73 0.75 0.78 0.77 0.74 0.74 0.74 0.72 0.71 0.68 0.66 0.67 0.70 0.71 0.69 0.67 0.66 0.68 0.75 0.82 0.90 0.99 1.00 0.89 0.93 1.03 1.07 1.21 1.26 1.20 1.17 1.18
0.31 0.41 0.34 0.27 0.27 0.31 0.36 0.39 0.47 0.52 0.45 0.43 0.36 0.38 0.35 0.34 0.34 0.31 0.28 0.30 0.22 0.24 0.25 0.21 0.16 0.23 0.34 0.36 0.33 0.36 0.35 0.32 0.31 0.31 0.29 0.30 0.37 0.39 0.39 0.45 0.49 0.47 0.48 0.50 0.53 0.59 0.62 0.64 0.70 0.74 0.74 0.69 0.66 0.68 0.74 0.75 0.77 0.80 0.76 0.74 0.73 0.74 0.75 0.74 0.71 0.68 0.69 0.68 0.64 0.61 0.59 0.61 0.66 0.70 0.75 0.87 0.92 0.99 1.05 1.05 1.07 1.12 1.18 1.17 1.12 1.16
0.32 0.33 0.32 0.25 0.21 0.21 0.19 0.22 0.27 0.29 0.30 0.36 0.36 0.36 0.38 0.33 0.33 0.27 0.22 0.24 0.19 0.24 0.26 0.21 0.21 0.28 0.32 0.33 0.33 0.34 0.32 0.31 0.30 0.29 0.30 0.30 0.32 0.37 0.41 0.45 0.46 0.43 0.44 0.48 0.53 0.60 0.62 0.65 0.69 0.74 0.75 0.72 0.68 0.68 0.71 0.75 0.77 0.78 0.79 0.74 0.74 0.71 0.73 0.75 0.72 0.70 0.69 0.66 0.62 0.62 0.59 0.55 0.58 0.64 0.69 0.74 0.84 1.02 1.15 1.10 1.00 1.00 1.08 1.16 1.19 1.21
0.32 0.36 0.35 0.31 0.30 0.26 0.29 0.35 0.42 0.37 0.33 0.28 0.32 0.32 0.35 0.37 0.36 0.34 0.31 0.26 0.23 0.26 0.22 0.25 0.27 0.27 0.26 0.29 0.30 0.31 0.28 0.25 0.25 0.27 0.27 0.26 0.29 0.39 0.41 0.43 0.40 0.40 0.44 0.48 0.53 0.60 0.63 0.65 0.68 0.72 0.74 0.74 0.72 0.71 0.72 0.74 0.77 0.79 0.78 0.76 0.75 0.76 0.76 0.76 0.78 0.77 0.73 0.68 0.65 0.64 0.65 0.60 0.55 0.62 0.66 0.68 0.71 0.80 0.96 1.16 1.24 1.24 1.29 1.42 1.46 1.31
0.30 0.26 0.32 0.32 0.33 0.34 0.35 0.35 0.39 0.38 0.31 0.32 0.32 0.33 0.35 0.32 0.33 0.32 0.28 0.25 0.32 0.25 0.21 0.29 0.31 0.25 0.25 0.26 0.28 0.28 0.25 0.25 0.26 0.27 0.26 0.26 0.31 0.39 0.39 0.36 0.35 0.39 0.42 0.46 0.52 0.58 0.61 0.65 0.68 0.70 0.73 0.72 0.69 0.68 0.71 0.75 0.78 0.80 0.83 0.81 0.78 0.78 0.79 0.80 0.79 0.75 0.72 0.71 0.69 0.67 0.66 0.67 0.64 0.59 0.64 0.66 0.68 0.72 0.85 0.95 1.08 1.25 1.27 1.21 1.08 1.18
0.32 0.27 0.31 0.33 0.33 0.36 0.38 0.37 0.37 0.36 0.36 0.34 0.34 0.35 0.35 0.35 0.33 0.30 0.31 0.34 0.32 0.25 0.22 0.28 0.30 0.25 0.26 0.28 0.27 0.26 0.24 0.23 0.25 0.24 0.28 0.27 0.36 0.39 0.35 0.31 0.32 0.34 0.38 0.42 0.48 0.56 0.61 0.64 0.67 0.67 0.68 0.68 0.67 0.64 0.65 0.69 0.72 0.74 0.76 0.78 0.81 0.82 0.81 0.83 0.82 0.79 0.76 0.74 0.71 0.71 0.71 0.69 0.70 0.68 0.62 0.63 0.66 0.70 0.79 0.84 0.87 0.91 1.04 1.08 1.05 1.19
0.37 0.29 0.32 0.33 0.32 0.32 0.33 0.33 0.34 0.35 0.37 0.37 0.37 0.37 0.37 0.37 0.35 0.34 0.34 0.35 0.32 0.31 0.33 0.31 0.28 0.26 0.29 0.28 0.27 0.25 0.25 0.26 0.26 0.29 0.30 0.29 0.35 0.36 0.30 0.30 0.31 0.32 0.35 0.39 0.45 0.53 0.58 0.63 0.65 0.65 0.66 0.66 0.63 0.62 0.62 0.66 0.68 0.69 0.69 0.72 0.76 0.77 0.83 0.85 0.83 0.81 0.79 0.77 0.76 0.76 0.76 0.77 0.76 0.73 0.67 0.60 0.62 0.66 0.76 0.89 0.88 0.95 0.97 1.05 1.14 1.18
0.37 0.27 0.33 0.34 0.32 0.31 0.35 0.36 0.37 0.38 0.39 0.35 0.35 0.37 0.39 0.39 0.37 0.37 0.35 0.35 0.35 0.33 0.33 0.31 0.26 0.26 0.30 0.28 0.27 0.28 0.28 0.27 0.28 0.28 0.27 0.30 0.35 0.34 0.29 0.29 0.29 0.33 0.33 0.39 0.44 0.50 0.55 0.60 0.62 0.63 0.64 0.64 0.63 0.61 0.61 0.63 0.67 0.69 0.70 0.71 0.73 0.77 0.83 0.85 0.84 0.84 0.85 0.82 0.81 0.81 0.80 0.77 0.78 0.81 0.76 0.69 0.63 0.67 0.74 0.84 0.92 1.01 1.01 1.03 1.05 1.12
0.43 0.34 0.37 0.34 0.27 0.26 0.31 0.33 0.35 0.39 0.40 0.36 0.36 0.38 0.38 0.37 0.33 0.38 0.35 0.36 0.32 0.30 0.32 0.27 0.27 0.24 0.25 0.27 0.28 0.26 0.27 0.26 0.26 0.25 0.26 0.32 0.34 0.33 0.31 0.30 0.29 0.31 0.33 0.38 0.41 0.48 0.52 0.55 0.59 0.61 0.63 0.64 0.62 0.61 0.61 0.63 0.65 0.66 0.67 0.70 0.73 0.76 0.79 0.80 0.81 0.84 0.85 0.86 0.84 0.82 0.82 0.82 0.81 0.81 0.83 0.84 0.80 0.73 0.76 0.85 0.82 0.94 1.03 1.10 1.12 1.17
0.36 0.33 0.30 0.29 0.24 0.23 0.29 0.32 0.32 0.33 0.33 0.29 0.30 0.34 0.36 0.35 0.39 0.38 0.41 0.40 0.36 0.35 0.29 0.25 0.24 0.27 0.29 0.29 0.26 0.25 0.26 0.25 0.25 0.25 0.29 0.36 0.34 0.32 0.33 0.30 0.30 0.30 0.33 0.38 0.41 0.44 0.49 0.52 0.56 0.58 0.63 0.66 0.64 0.62 0.59 0.64 0.65 0.65 0.67 0.69 0.73 0.77 0.78 0.79 0.81 0.85 0.86 0.87 0.85 0.83 0.82 0.80 0.80 0.82 0.83 0.84 0.85 0.85 0.79 0.74 0.79 0.83 1.01 1.04 0.97 1.08
0.35 0.32 0.29 0.33 0.24 0.23 0.26 0.27 0.28 0.25 0.18 0.21 0.38 0.40 0.40 0.37 0.36 0.34 0.32 0.35 0.38 0.38 0.35 0.34 0.30 0.32 0.31 0.31 0.28 0.26 0.24 0.24 0.24 0.29 0.36 0.36 0.33 0.33 0.32 0.33 0.32 0.32 0.34 0.38 0.40 0.43 0.46 0.49 0.52 0.54 0.62 0.66 0.63 0.65 0.62 0.61 0.66 0.68 0.70 0.71 0.72 0.73 0.73 0.73 0.76 0.79 0.80 0.81 0.81 0.82 0.80 0.80 0.84 0.86 0.87 0.90 0.90 0.85 0.82 0.77 0.73 0.78 0.87 0.96 0.99 0.96
0.32 0.34 0.31 0.32 0.25 0.22 0.24 0.25 0.20 0.16 0.18 0.34 0.41 0.42 0.42 0.40 0.39 0.36 0.35 0.37 0.39 0.39 0.38 0.36 0.35 0.32 0.34 0.33 0.32 0.30 0.28 0.27 0.31 0.33 0.37 0.37 0.36 0.33 0.33 0.30 0.35 0.34 0.34 0.38 0.37 0.39 0.43 0.44 0.47 0.49 0.56 0.62 0.61 0.62 0.63 0.60 0.65 0.69 0.70 0.69 0.67 0.69 0.69 0.71 0.71 0.73 0.73 0.73 0.76 0.78 0.78 0.77 0.78 0.82 0.86 0.88 0.89 0.87 0.83 0.80 0.78 0.77 0.81 0.87 0.91 0.93
0.31 0.29 0.30 0.28 0.28 0.28 0.24 0.22 0.15 0.18 0.35 0.35 0.39 0.38 0.41 0.39 0.38 0.36 0.35 0.36 0.36 0.36 0.37 0.36 0.37 0.38 0.36 0.35 0.35 0.33 0.29 0.26 0.34 0.40 0.38 0.38 0.38 0.35 0.32 0.30 0.35 0.36 0.35 0.36 0.37 0.38 0.40 0.40 0.41 0.44 0.50 0.57 0.60 0.60 0.63 0.61 0.65 0.68 0.70 0.71 0.68 0.67 0.67 0.68 0.68 0.69 0.70 0.70 0.72 0.75 0.76 0.76 0.76 0.77 0.80 0.85 0.87 0.86 0.85 0.86 0.85 0.81 0.78 0.78 0.85 0.95
0.36 0.35 0.34 0.27 0.32 0.22 0.23 0.22 0.21 0.28 0.28 0.33 0.34 0.36 0.41 0.33 0.36 0.33 0.25 0.30 0.35 0.38 0.38 0.38 0.40 0.40 0.39 0.37 0.36 0.33 0.31 0.31 0.32 0.34 0.39 0.38 0.37 0.35 0.32 0.34 0.37 0.37 0.38 0.38 0.39 0.37 0.40 0.38 0.39 0.38 0.47 0.51 0.56 0.58 0.60 0.61 0.67 0.69 0.72 0.71 0.70 0.69 0.69 0.69 0.66 0.65 0.67 0.68 0.71 0.73 0.76 0.76 0.76 0.77 0.79 0.82 0.85 0.85 0.85 0.87 0.87 0.86 0.86 0.81 0.84 0.87
0.41 0.33 0.36 0.30 0.28 0.29 0.22 0.20 0.21 0.19 0.18 0.29 0.36 0.41 0.46 0.47 0.44 0.41 0.34 0.29 0.37 0.38 0.42 0.42 0.42 0.41 0.38 0.38 0.36 0.32 0.34 0.29 0.25 0.28 0.35 0.34 0.32 0.33 0.34 0.35 0.38 0.39 0.40 0.39 0.39 0.40 0.39 0.38 0.39 0.37 0.40 0.43 0.48 0.52 0.55 0.55 0.62 0.68 0.70 0.70 0.71 0.70 0.69 0.67 0.66 0.67 0.68 0.68 0.70 0.72 0.76 0.78 0.78 0.78 0.79 0.80 0.81 0.83 0.85 0.89 0.93 0.92 0.93 0.89 0.88 0.88
0.44 0.44 0.41 0.34 0.29 0.28 0.25 0.20 0.19 0.17 0.20 0.30 0.35 0.40 0.45 0.47 0.48 0.49 0.34 0.24 0.38 0.42 0.46 0.46 0.43 0.41 0.39 0.36 0.36 0.34 0.30 0.24 0.23 0.26 0.33 0.32 0.33 0.33 0.32 0.34 0.33 0.39 0.40 0.41 0.40 0.38 0.37 0.38 0.38 0.35 0.36 0.40 0.40 0.45 0.47 0.49 0.56 0.60 0.66 0.70 0.70 0.71 0.70 0.69 0.70 0.70 0.69 0.71 0.74 0.77 0.78 0.80 0.81 0.81 0.81 0.80 0.81 0.84 0.85 0.87 0.88 0.93 0.95 0.96 0.95 0.94
0.38 0.39 0.39 0.33 0.28 0.27 0.25 0.21 0.19 0.22 0.23 0.36 0.39 0.41 0.43 0.46 0.49 0.39 0.21 0.21 0.39 0.43 0.46 0.47 0.43 0.40 0.39 0.38 0.36 0.33 0.29 0.24 0.25 0.29 0.34 0.35 0.34 0.34 0.34 0.33 0.34 0.37 0.39 0.41 0.43 0.42 0.40 0.39 0.36 0.33 0.35 0.36 0.37 0.39 0.38 0.40 0.47 0.51 0.54 0.59 0.67 0.67 0.68 0.69 0.71 0.74 0.75 0.76 0.77 0.78 0.79 0.83 0.82 0.82 0.82 0.83 0.84 0.85 0.87 0.89 0.88 0.88 0.91 0.92 0.96 0.96
0.33 0.34 0.34 0.26 0.26 0.25 0.25 0.24 0.26 0.25 0.29 0.33 0.42 0.45 0.43 0.48 0.40 0.25 0.19 0.32 0.42 0.46 0.48 0.48 0.45 0.41 0.40 0.38 0.37 0.31 0.34 0.34 0.34 0.36 0.39 0.37 0.34 0.34 0.35 0.36 0.38 0.41 0.40 0.41 0.41 0.42 0.41 0.38 0.35 0.34 0.35 0.35 0.37 0.36 0.36 0.34 0.36 0.40 0.46 0.52 0.55 0.58 0.63 0.69 0.71 0.74 0.76 0.76 0.74 0.75 0.76 0.79 0.82 0.79 0.82 0.84 0.83 0.83 0.82 0.82 0.82 0.84 0.85 0.87 0.90 0.93
0.31 0.32 0.31 0.31 0.27 0.25 0.25 0.23 0.23 0.26 0.36 0.43 0.48 0.46 0.49 0.39 0.25 0.26 0.39 0.48 0.48 0.47 0.48 0.46 0.42 0.41 0.41 0.39 0.37 0.37 0.37 0.37 0.39 0.41 0.38 0.36 0.36 0.34 0.34 0.36 0.39 0.41 0.43 0.42 0.42 0.41 0.40 0.36 0.36 0.36 0.36 0.38 0.36 0.36 0.35 0.34 0.32 0.33 0.36 0.40 0.45 0.52 0.58 0.62 0.65 0.70 0.74 0.75 0.74 0.71 0.73 0.75 0.77 0.80 0.80 0.80 0.81 0.81 0.80 0.82 0.83 0.84 0.84 0.86 0.88 0.88
0.26 0.26 0.26 0.27 0.30 0.29 0.26 0.23 0.21 0.17 0.40 0.48 0.46 0.44 0.48 0.31 0.32 0.42 0.46 0.47 0.47 0.46 0.45 0.45 0.44 0.43 0.43 0.41 0.41 0.38 0.37 0.37 0.39 0.38 0.36 0.37 0.36 0.33 0.33 0.36 0.37 0.38 0.38 0.39 0.39 0.42 0.39 0.34 0.35 0.36 0.38 0.38 0.38 0.37 0.37 0.35 0.32 0.32 0.33 0.33 0.36 0.42 0.47 0.52 0.56 0.60 0.65 0.70 0.72 0.72 0.71 0.74 0.75 0.76 0.78 0.78 0.78 0.77 0.77 0.79 0.80 0.80 0.82 0.82 0.84 0.88
0.32 0.25 0.24 0.25 0.28 0.22 0.23 0.21 0.22 0.32 0.44 0.48 0.42 0.34 0.43 0.42 0.48 0.50 0.48 0.45 0.49 0.48 0.47 0.45 0.45 0.46 0.45 0.42 0.39 0.37 0.37 0.38 0.39 0.36 0.35 0.36 0.34 0.33 0.35 0.37 0.38 0.38 0.37 0.40 0.40 0.40 0.37 0.35 0.35 0.36 0.38 0.36 0.39 0.39 0.38 0.37 0.34 0.34 0.33 0.33 0.36 0.37 0.38 0.41 0.44 0.48 0.54 0.61 0.67 0.70 0.71 0.71 0.73 0.75 0.77 0.77 0.76 0.75 0.75 0.76 0.77 0.78 0.78 0.78 0.77 0.77
0.32 0.28 0.33 0.28 0.38 0.29 0.28 0.32 0.40 0.42 0.44 0.47 0.44 0.43 0.46 0.52 0.51 0.51 0.52 0.51 0.49 0.49 0.51 0.47 0.46 0.49 0.48 0.45 0.41 0.38 0.38 0.38 0.35 0.36 0.35 0.33 0.32 0.32 0.34 0.37 0.36 0.35 0.36 0.37 0.37 0.38 0.34 0.34 0.33 0.35 0.35 0.36 0.38 0.38 0.37 0.38 0.37 0.36 0.34 0.36 0.38 0.36 0.36 0.36 0.38 0.41 0.45 0.52 0.58 0.64 0.68 0.69 0.69 0.70 0.72 0.74 0.74 0.71 0.71 0.72 0.73 0.70 0.70 0.70 0.70 0.70
0.36 0.36 0.38 0.33 0.30 0.37 0.39 0.39 0.40 0.38 0.40 0.44 0.48 0.47 0.45 0.47 0.51 0.52 0.51 0.51 0.53 0.53 0.51 0.48 0.49 0.49 0.50 0.48 0.41 0.40 0.38 0.36 0.35 0.36 0.35 0.32 0.31 0.33 0.36 0.37 0.36 0.36 0.37 0.37 0.35 0.32 0.32 0.33 0.33 0.33 0.32 0.34 0.36 0.35 0.36 0.37 0.38 0.36 0.37 0.39 0.39 0.39 0.38 0.38 0.36 0.36 0.41 0.46 0.50 0.56 0.61 0.62 0.63 0.65 0.66 0.68 0.70 0.69 0.70 0.69 0.67 0.65 0.65 0.65 0.65 0.65
0.36 0.41 0.37 0.32 0.35 0.31 0.25 0.33 0.34 0.34 0.38 0.40 0.42 0.47 0.50 0.50 0.50 0.53 0.52 0.52 0.54 0.54 0.53 0.53 0.52 0.52 0.51 0.49 0.45 0.40 0.37 0.37 0.36 0.36 0.34 0.31 0.31 0.33 0.34 0.34 0.36 0.35 0.35 0.33 0.32 0.30 0.30 0.29 0.29 0.30 0.31 0.31 0.33 0.33 0.34 0.35 0.36 0.38 0.38 0.39 0.40 0.39 0.39 0.40 0.39 0.38 0.39 0.41 0.44 0.47 0.52 0.55 0.56 0.57 0.60 0.62 0.64 0.67 0.68 0.69 0.67 0.65 0.64 0.63 0.62 0.60
0.34 0.49 0.38 0.35 0.33 0.31 0.30 0.34 0.35 0.37 0.39 0.41 0.42 0.43 0.42 0.45 0.50 0.52 0.53 0.54 0.55 0.55 0.54 0.53 0.55 0.54 0.54 0.49 0.47 0.41 0.38 0.38 0.37 0.35 0.32 0.31 0.31 0.33 0.32 0.32 0.32 0.32 0.34 0.33 0.30 0.30 0.29 0.27 0.28 0.28 0.29 0.30 0.31 0.31 0.34 0.34 0.35 0.36 0.37 0.37 0.38 0.39 0.39 0.40 0.39 0.39 0.40 0.41 0.42 0.43 0.44 0.47 0.53 0.56 0.56 0.58 0.60 0.60 0.62 0.65 0.67 0.65 0.63 0.62 0.61 0.59
0.42 0.43 0.33 0.37 0.35 0.37 0.38 0.38 0.39 0.40 0.40 0.40 0.40 0.42 0.44 0.45 0.46 0.49 0.51 0.51 0.52 0.52 0.53 0.55 0.56 0.55 0.54 0.52 0.50 0.46 0.40 0.39 0.38 0.36 0.32 0.31 0.33 0.33 0.32 0.31 0.30 0.31 0.33 0.29 0.29 0.30 0.28 0.27 0.27 0.28 0.29 0.30 0.30 0.31 0.33 0.33 0.35 0.36 0.35 0.35 0.37 0.38 0.37 0.38 0.38 0.39 0.40 0.41 0.41 0.40 0.40 0.43 0.46 0.51 0.54 0.56 0.59 0.61 0.62 0.61 0.61 0.61 0.63 0.68 0.68 0.64
0.40 0.34 0.38 0.36 0.32 0.32 0.32 0.35 0.41 0.33 0.32 0.36 0.41 0.45 0.48 0.51 0.48 0.48 0.51 0.51 0.52 0.53 0.55 0.54 0.54 0.56 0.55 0.53 0.52 0.49 0.43 0.39 0.39 0.36 0.33 0.33 0.33 0.33 0.32 0.30 0.29 0.32 0.31 0.29 0.31 0.29 0.28 0.28 0.29 0.29 0.30 0.31 0.29 0.31 0.33 0.33 0.35 0.35 0.34 0.34 0.37 0.38 0.35 0.36 0.37 0.37 0.38 0.39 0.39 0.39 0.39 0.40 0.42 0.44 0.47 0.50 0.52 0.54 0.57 0.64 0.63 0.62 0.60 0.61 0.65 0.66
0.40 0.40 0.39 0.35 0.33 0.32 0.37 0.40 0.45 0.43 0.41 0.42 0.43 0.46 0.47 0.52 0.51 0.50 0.51 0.52 0.54 0.55 0.56 0.55 0.54 0.54 0.54 0.53 0.53 0.49 0.45 0.42 0.39 0.37 0.34 0.34 0.34 0.34 0.33 0.29 0.29 0.32 0.31 0.29 0.30 0.29 0.27 0.29 0.30 0.31 0.31 0.32 0.29 0.32 0.34 0.34 0.36 0.33 0.34 0.34 0.37 0.37 0.36 0.36 0.35 0.35 0.36 0.37 0.37 0.38 0.38 0.39 0.40 0.41 0.42 0.44 0.45 0.48 0.48 0.48 0.53 0.60 0.64 0.65 0.65 0.65
Wind_Speed
5 6 5 4 4 4 5 6 7 7 7 8 8 8 9 9 8 8 8 7 6 6 8 9 10 11 12 11 11 12 12 13 13 12 12 12 13 13 12 13 13 14 15 16 17 19 18 17 18 19 19 21 22 22 23 24 24 25 26 26 25 25 25 25 26 27 27 28 28 27 27 27 26 26 26 26 27 27 27 27 27 27 27 28 28 27
4 5 5 4 4 5 6 6 6 7 7 8 9 9 9 9 7 7 9 8 6 7 9 10 11 12 11 11 11 11 12 13 12 11 9 8 8 8 8 10 12 14 15 16 17 18 19 20 20 20 19 20 22 23 23 23 23 25 26 26 26 26 26 26 26 28 28 29 29 28 27 28 26 26 26 26 25 25 26 27 28 28 28 29 29 28
5 5 5 4 5 6 7 7 6 6 7 8 8 9 9 8 8 9 11 11 8 9 10 10 11 10 9 10 9 9 7 5 4 4 4 4 5 6 8 9 11 13 15 17 19 19 20 21 21 21 20 21 22 24 24 23 23 24 25 26 27 27 27 27 27 28 29 29 30 29 28 28 28 26 26 26 25 25 24 25 27 28 29 29 29 28
5 4 4 4 6 6 6 6 6 6 7 7 7 8 8 8 8 8 9 10 10 10 10 10 10 9 9 8 7 6 3 1 1 1 2 4 6 8 9 10 12 14 15 17 19 20 20 21 22 22 22 23 24 24 24 24 24 25 25 26 27 27 28 28 28 28 29 29 30 30 28 29 30 28 27 27 27 26 25 24 24 27 29 30 29 29
4 4 4 5 6 6 6 6 5 5 6 6 6 7 7 7 8 8 8 9 10 10 9 9 9 9 9 7 5 4 2 1 2 2 4 6 8 10 12 13 14 15 16 17 18 20 21 22 22 23 23 23 24 25 25 24 25 26 26 26 27 28 28 29 29 29 29 29 30 31 29 29 30 30 29 29 29 29 28 26 25 26 29 30 30 29
4 4 5 6 6 5 6 5 3 4 6 6 6 7 10 10 10 11 11 10 10 9 7 7 7 7 7 4 4 5 3 2 4 5 7 9 10 12 13 14 15 16 17 17 18 19 20 20 22 23 23 23 24 24 25 26 26 26 27 27 28 28 29 30 30 30 30 30 31 32 31 30 31 32 32 31 31 31 30 29 27 26 28 29 30 30
3 3 4 4 4 5 5 3 3 4 6 6 6 8 11 11 11 11 11 10 9 8 7 7 5 4 3 1 1 2 3 3 5 7 8 10 11 13 13 13 14 15 16 18 19 19 20 20 20 22 22 23 24 25 25 26 27 27 27 28 29 29 30 31 31 32 31 31 32 32 32 31 31 31 32 32 31 32 32 31 29 28 28 29 30 30
4 4 4 4 4 4 4 2 2 5 6 5 6 9 10 9 9 9 9 8 7 4 5 5 5 3 2 2 3 2 3 5 7 8 9 11 13 13 14 15 16 16 16 18 19 20 21 20 20 22 23 23 24 25 25 26 27 28 28 28 29 30 30 31 32 33 33 33 32 33 33 32 31 31 31 31 31 31 33 34 32 30 30 30 31 31
7 5 4 4 4 3 3 3 3 5 6 6 7 8 8 7 8 7 7 6 4 3 3 4 5 3 2 4 4 3 5 7 9 10 11 12 14 15 15 17 18 18 18 18 19 20 22 22 21 22 23 23 24 25 25 26 26 28 28 29 29 29 30 31 33 34 34 34 34 33 33 33 33 32 31 32 32 31 32 35 34 33 32 31 32 32
6 4 4 4 4 3 3 4 4 5 6 7 8 9 8 7 7 6 5 4 4 3 3 3 2 2 3 4 4 5 6 8 10 11 12 14 16 16 17 18 19 19 20 20 21 21 22 23 23 23 24 24 24 25 25 25 26 27 28 29 29 30 30 31 32 34 35 35 35 35 34 34 34 34 33 32 32 32 32 35 36 36 34 33 33 34
4 5 4 3 3 4 5 6 7 6 7 8 10 10 7 5 6 5 4 4 3 2 3 3 3 2 3 3 3 5 7 8 10 10 12 14 16 17 18 19 19 20 20 21 22 22 24 25 25 25 26 26 25 25 25 26 26 27 28 29 30 30 31 31 32 33 35 35 35 36 35 34 34 34 34 34 34 33 33 34 36 37 37 36 35 34
5 5 4 3 3 5 6 7 7 7 8 8 9 8 5 5 6 4 4 4 2 1 2 3 3 2 2 2 2 4 6 7 9 10 12 14 16 17 18 18 19 19 19 20 21 22 23 24 25 25 27 27 26 26 26 26 27 27 28 28 29 30 31 31 31 31 33 34 35 36 36 35 34 34 35 35 35 34 34 34 34 36 39 38 37 35
6 5 4 4 3 5 6 6 4 4 6 7 7 8 5 4 4 3 2 3 1 2 4 3 3 2 1 1 2 4 6 8 9 11 13 15 17 18 18 18 18 18 18 19 20 21 22 23 24 25 26 27 27 27 28 27 27 27 28 28 29 30 30 31 31 30 32 33 34 35 37 37 36 35 36 35 35 35 34 34 33 34 38 40 39 37
5 4 4 5 4 4 5 5 4 4 6 7 7 7 5 4 4 3 3 2 1 2 3 3 3 2 0 1 4 6 7 9 10 11 13 15 17 17 18 18 17 17 18 18 19 19 20 22 23 24 25 27 28 28 29 28 28 28 28 29 29 30 30 31 32 31 32 32 32 34 36 37 35 34 34 34 35 35 34 34 34 34 35 38 40 39
4 4 4 4 4 4 5 5 5 6 7 6 6 6 5 4 5 5 4 4 4 4 3 3 3 3 2 3 5 7 8 9 11 12 14 15 16 17 17 17 17 17 17 18 19 19 19 21 22 23 24 26 28 29 29 30 30 29 29 29 30 30 30 31 32 33 33 32 32 33 35 35 34 33 32 31 33 35 34 34 36 35 34 36 38 39
5 5 4 4 4 5 5 5 6 7 6 5 6 5 5 5 6 5 4 5 5 5 5 4 3 3 2 4 5 7 8 10 12 14 15 16 17 17 17 18 18 18 18 18 19 20 21 21 21 22 23 25 27 28 29 30 30 30 30 30 30 31 31 31 32 33 33 33 33 33 34 35 34 33 33 31 31 33 33 33 35 36 35 35 36 38
5 5 5 6 5 4 5 5 6 6 5 6 6 5 5 6 7 5 4 4 4 5 5 4 2 2 2 4 7 8 10 11 12 14 16 17 17 18 18 18 19 19 20 20 20 21 21 22 22 22 23 24 26 28 29 29 30 31 31 31 31 32 31 31 31 33 34 34 34 34 35 35 34 34 34 34 33 34 34 32 32 34 36 36 36 37
5 6 7 7 6 4 5 6 5 5 6 6 5 5 6 6 5 5 5 5 5 6 6 3 2 4 4 5 8 9 11 13 14 14 16 17 18 18 18 19 20 20 21 22 22 22 22 23 23 23 23 24 26 27 29 30 30 30 31 31 31 32 32 31 31 32 33 34 35 35 35 35 35 34 34 35 35 35 36 35 32 32 35 36 37 37
6 7 7 7 6 5 6 6 6 5 5 4 4 5 6 6 5 6 6 6 6 7 7 4 3 5 6 7 9 11 13 14 15 16 17 18 19 19 19 20 20 20 21 22 22 23 23 24 25 25 25 25 25 26 28 30 29 30 31 31 31 31 31 32 32 31 32 33 34 35 36 35 35 35 35 36 36 36 37 36 34 32 34 36 36 37
6 6 5 6 6 6 6 5 5 5 5 5 5 5 5 6 6 6 6 6 7 7 8 7 7 6 7 9 12 13 14 15 16 17 18 19 19 19 20 20 20 21 21 22 23 24 24 25 26 27 26 26 25 24 26 28 28 28 29 29 30 30 30 31 32 31 32 32 33 34 35 35 36 36 36 36 36 37 37 37 36 35 35 36 36 36
5 5 5 6 7 6 5 5 5 5 6 6 6 6 6 6 6 7 7 6 7 8 8 9 9 7 8 11 13 15 15 15 17 19 19 19 19 19 19 20 20 21 22 23 24 25 26 27 28 28 27 26 25 23 23 26 26 26 27 27 28 29 29 30 30 31 31 31 32 33 34 35 36 36 36 36 37 38 38 38 38 37 36 37 37 36
5 5 5 6 7 6 5 6 6 6 7 7 7 6 7 7 7 8 7 6 8 9 9 10 10 8 9 12 14 15 16 17 19 20 20 19 18 18 19 20 21 21 22 24 25 26 27 28 30 30 27 25 24 23 21 22 24 24 25 26 26 28 29 29 29 29 29 30 31 32 33 34 36 37 37 37 37 38 38 39 39 39 39 38 37 37
5 5 6 5 5 5 6 6 6 6 7 7 6 6 7 7 7 8 9 9 10 11 10 11 12 10 10 13 14 15 17 19 20 20 20 18 17 18 19 20 20 21 22 23 25 27 28 30 31 30 26 23 22 21 19 20 21 23 23 24 25 26 27 29 29 29 28 29 30 31 31 32 34 36 36 36 37 38 38 38 39 40 40 40 38 37
5 5 5 5 4 5 6 7 7 7 7 6 5 5 7 8 8 9 10 10 11 11 10 11 11 10 11 14 15 15 17 19 19 20 20 18 17 19 20 20 20 21 21 23 25 26 28 30 31 28 25 22 20 19 17 17 19 21 22 23 24 24 26 27 28 28 27 28 30 31 31 31 32 34 35 36 36 37 37 37 37 39 40 41 39 38
5 4 5 6 4 5 6 6 7 7 6 5 6 7 8 8 9 10 10 10 11 10 10 12 11 10 12 15 16 16 18 20 19 19 19 17 17 19 19 19 20 21 21 23 25 26 27 29 30 28 24 21 19 17 15 15 17 19 20 22 23 23 24 25 26 27 27 27 29 31 32 32 32 32 34 35 35 36 37 37 37 38 40 41 41 40
5 5 5 6 6 5 6 6 7 7 7 7 7 8 8 8 9 9 9 10 9 9 11 12 11 12 14 16 16 17 19 19 19 20 19 18 17 18 18 19 20 21 21 22 24 25 26 27 28 27 22 19 18 16 14 14 15 17 18 21 22 23 23 24 25 26 27 27 29 30 31 32 32 32 33 35 35 36 36 36 36 37 39 40 41 42
5 5 6 6 7 7 7 8 8 8 9 9 9 8 8 8 9 9 9 9 9 10 10 9 10 14 15 15 15 17 18 17 18 19 18 18 17 17 18 19 20 20 21 22 23 24 25 25 26 25 21 18 17 16 13 13 14 15 17 18 20 22 23 24 24 25 26 27 28 30 31 31 32 33 33 34 35 36 36 36 36 36 36 37 37 39
5 6 7 7 9 9 9 10 10 10 10 10 10 10 9 9 10 9 9 9 9 10 10 10 12 14 15 15 16 16 17 16 17 17 17 17 17 17 18 20 20 20 21 22 23 24 24 24 24 24 21 18 18 17 15 13 13 14 15 16 18 20 21 23 24 25 25 26 27 29 30 31 32 33 33 33 34 36 37 37 37 36 36 36 36 36
5 6 7 8 9 10 10 11 11 10 10 10 10 10 10 9 9 9 10 10 10 10 11 12 14 14 14 15 15 15 15 15 16 17 16 16 16 17 18 20 20 21 22 23 23 23 24 23 23 23 22 19 18 17 15 14 13 14 15 15 17 18 20 21 23 24 25 25 26 27 29 30 31 32 33 33 33 35 37 38 38 38 37 37 38 37
5 6 7 8 10 11 11 11 11 10 10 10 10 11 11 10 9 10 10 10 10 11 12 12 13 13 13 12 13 15 15 15 16 16 16 16 16 17 18 19 20 21 22 23 23 22 23 23 23 24 22 19 18 17 16 15 15 15 16 16 17 17 18 19 20 22 23 24 25 26 27 28 29 30 32 33 34 34 36 37 37 38 39 39 39 39
4 6 7 8 9 10 10 10 10 10 10 11 11 11 11 11 11 11 11 10 10 11 11 11 12 12 10 11 13 14 15 15 15 16 16 15 15 16 18 19 20 21 21 22 22 22 22 22 23 24 23 20 18 17 16 15 16 16 16 16 16 17 17 17 18 20 21 22 24 25 26 27 28 29 29 31 33 34 35 36 35 36 38 39 39 40
5 7 8 9 9 9 9 9 9 10 11 12 12 11 12 11 10 10 10 9 10 10 10 11 11 10 10 12 13 14 15 15 15 15 15 14 15 16 18 20 20 20 21 21 21 21 21 22 22 23 23 21 18 17 16 15 16 16 15 14 14 15 15 15 16 17 19 20 21 23 24 26 27 28 29 30 31 33 35 36 35 34 35 37 38 38
6 7 8 8 9 9 9 8 8 9 11 10 10 10 10 9 8 9 9 9 10 9 9 10 9 10 11 12 13 14 15 15 15 15 14 13 15 16 19 20 20 19 20 20 20 21 21 21 22 23 22 21 19 17 17 16 15 15 15 13 12 12 13 13 14 16 17 18 19 21 22 23 25 26 28 29 30 32 34 35 35 34 34 35 37 37
7 7 8 8 9 10 11 11 9 9 9 8 8 9 8 7 7 9 9 9 9 9 9 9 10 11 11 12 13 14 15 15 15 14 12 12 15 17 18 19 19 19 20 20 20 21 21 21 21 22 22 21 19 18 17 16 15 15 14 13 11 11 12 13 14 15 15 16 18 19 20 21 22 24 25 27 29 31 32 34 35 36 35 35 36 37
7 7 8 8 9 10 11 11 10 9 8 7 7 8 8 7 7 8 9 9 9 8 8 9 10 11 11 12 13 14 15 15 14 12 11 13 15 16 18 19 19 18 19 19 19 19 19 20 21 21 22 21 20 18 17 16 16 15 13 12 11 11 12 13 14 15 15 16 18 18 20 21 22 23 24 25 27 29 31 33 34 35 36 35 35 36
7 7 8 8 9 9 10 9 9 9 8 8 8 8 8 8 8 8 9 9 8 7 7 9 10 11 12 13 14 14 15 15 12 10 11 13 15 16 17 18 18 18 18 18 18 18 18 20 20 21 21 20 19 18 17 16 16 15 14 13 12 11 12 13 14 15 16 17 18 18 20 21 21 22 24 25 26 27 29 31 32 33 35 36 35 35
8 8 8 8 8 9 9 10 10 11 9 7 7 8 7 7 7 7 9 9 7 6 7 8 9 11 12 13 14 14 15 14 10 8 11 14 15 17 17 17 18 18 17 18 18 18 18 19 19 20 20 20 19 19 18 17 16 14 14 13 13 12 12 13 14 15 16 17 18 19 20 21 22 22 23 24 25 26 27 29 30 32 33 34 35 35
9 8 8 8 8 8 10 10 10 11 9 6 7 7 7 7 7 8 9 10 7 5 6 7 9 10 12 13 14 14 14 12 9 9 13 17 17 17 17 17 17 18 17 17 17 18 18 19 19 19 19 20 19 18 18 17 16 15 14 13 14 14 14 14 15 16 17 18 19 19 21 22 22 22 23 24 24 25 25 27 28 30 31 33 34 34
9 9 9 10 10 10 11 11 10 10 9 7 7 7 7 7 7 8 9 9 6 5 6 7 8 11 12 13 13 13 13 11 10 12 16 17 17 17 17 17 17 17 17 17 17 17 18 18 18 19 19 19 19 19 19 18 17 15 15 14 14 14 15 15 16 17 17 18 19 20 21 22 22 22 22 23 23 24 24 26 27 28 29 31 33 34
10 9 10 11 12 11 11 11 11 10 10 8 6 6 6 6 7 9 9 7 5 5 7 7 9 11 12 12 12 12 12 11 12 14 16 16 16 16 16 16 17 17 17 17 17 17 18 18 18 18 19 19 19 19 19 18 17 16 16 15 15 15 16 16 17 17 17 18 19 20 21 22 22 22 22 23 23 23 24 24 25 27 28 30 31 32
9 9 10 11 12 12 12 12 12 11 11 9 6 5 6 6 7 9 8 7 6 7 7 8 10 12 11 11 12 12 12 12 14 15 15 15 16 16 16 16 16 16 16 16 17 17 17 17 18 18 18 18 18 18 18 18 17 17 16 16 16 16 17 17 18 18 17 18 19 19 20 21 22 22 22 22 22 23 23 23 24 25 27 28 29 31
10 10 10 11 12 11 11 12 12 11 10 8 6 6 7 8 8 8 7 7 7 8 8 10 11 11 10 11 12 13 13 14 14 14 15 15 15 15 15 15 15 16 16 16 16 17 17 17 18 18 18 18 18 18 17 17 17 17 17 17 17 17 17 18 18 18 18 18 18 18 18 19 20 21 21 21 22 23 23 23 23 24 25 27 28 29
11 11 11 11 11 11 12 12 12 11 9 7 6 7 8 8 8 8 8 9 9 9 10 11 11 10 11 12 13 14 14 14 14 14 15 15 15 15 15 15 15 15 16 16 16 16 17 17 18 18 18 18 18 18 18 18 17 17 17 17 18 18 18 18 19 18 18 17 17 17 17 17 17 18 19 20 21 22 23 23 23 24 24 25 26 28
12 12 12 11 10 11 12 11 10 10 8 8 9 10 10 10 10 10 11 11 11 11 12 11 10 10 11 12 13 14 14 14 14 15 15 15 15 15 15 15 15 15 16 16 16 16 17 18 18 18 18 19 19 19 18 18 18 18 18 18 18 18 18 18 19 19 18 17 16 15 15 15 15 16 17 19 20 21 22 22 23 23 24 24 25 26
12 12 12 12 12 12 12 12 11 10 10 11 13 13 13 13 13 12 12 13 13 12 12 12 11 12 12 13 14 14 14 14 15 15 15 15 15 15 15 15 15 15 16 16 16 17 17 17 18 18 18 19 19 19 19 18 19 19 19 19 18 18 18 19 19 19 18 17 17 16 15 14 13 13 14 16 18 20 21 22 22 23 24 25 25 26
13 12 13 14 14 15 16 15 15 14 13 12 13 14 14 14 14 14 14 14 14 13 13 13 12 12 13 13 14 15 14 15 15 15 15 15 15 14 15 15 15 16 16 16 17 17 18 17 17 18 18 18 18 19 19 18 19 19 19 19 19 19 19 19 19 19 18 17 17 16 16 15 14 13 13 14 15 18 20 21 22 23 24 25 26 27
12 13 14 14 15 15 15 16 16 16 15 14 14 15 15 14 14 14 15 15 14 13 13 13 12 13 13 14 14 14 15 15 15 15 14 14 14 14 15 15 15 16 16 16 17 17 18 18 18 18 19 18 18 19 19 18 18 19 19 20 20 19 19 19 19 19 18 18 17 17 17 16 15 14 14 14 14 16 17 19 21 22 24 25 26 27
12 12 14 16 17 16 16 16 17 18 17 17 17 17 16 16 15 15 15 15 14 14 14 13 12 13 14 14 14 15 15 15 15 15 15 14 14 14 15 15 16 16 16 16 17 17 18 18 18 19 19 19 19 19 18 18 19 19 20 20 20 20 19 19 19 19 19 18 17 17 17 17 16 16 15 15 15 15 16 18 20 21 23 24 26 27
15 14 15 17 18 18 18 18 18 18 18 18 17 17 16 16 16 15 15 15 14 15 15 14 13 13 14 14 14 15 15 15 15 15 15 14 14 14 15 15 16 16 16 16 16 17 17 18 18 18 19 19 19 19 19 19 19 19 20 20 20 20 20 20 20 19 19 18 18 18 19 18 17 17 16 16 16 16 17 17 18 20 21 23 25 27
18 17 17 17 17 17 17 16 15 14 16 16 15 14 14 15 16 16 16 15 15 15 15 15 15 14 14 15 14 14 15 15 15 15 15 14 14 14 15 15 16 16 16 16 16 17 17 17 17 18 18 19 19 19 20 20 20 20 21 20 19 20 20 20 20 20 19 19 19 20 20 19 18 18 18 17 17 17 17 18 18 19 20 21 23 25
18 18 17 17 17 17 17 16 14 14 16 17 16 15 15 15 15 16 16 16 16 16 16 16 16 15 15 15 14 14 15 15 15 15 15 15 14 14 15 15 16 16 16 16 16 17 17 17 17 17 18 19 19 19 20 20 20 21 21 21 20 20 21 21 20 20 20 20 20 21 21 20 20 19 19 18 19 19 18 18 18 19 19 20 22 23
Wind_Direction
276 270 271 277 279 280 300 302 288 286 279 276 278 271 268 265 262 270 270 252 249 262 260 263 270 269 267 269 271 270 272 276 276 276 276 274 272 271 269 267 265 263 260 255 253 256 260 262 257 256 256 255 253 253 254 253 250 246 244 242 240 238 235 233 232 231 230 229 229 230 230 231 231 225 220 217 213 212 213 213 213 213 212 210 207 207
282 278 270 268 290 295 295 297 288 278 275 275 271 266 264 265 273 280 275 267 258 266 271 271 272 271 271 274 276 274 277 277 271 268 273 277 274 273 280 280 271 265 261 260 261 261 261 262 262 260 260 260 258 255 253 253 251 246 243 242 242 241 238 236 235 233 232 231 230 231 231 231 231 228 224 221 218 216 216 215 214 214 213 210 208 209
285 279 254 263 302 299 287 285 282 280 277 274 268 267 267 269 283 284 272 273 275 271 273 275 273 275 281 286 287 283 279 286 280 261 274 286 281 286 294 290 279 271 266 262 263 266 264 262 263 262 261 261 260 257 254 252 251 247 244 243 242 241 239 237 236 235 233 233 232 234 234 231 228 227 224 223 222 221 220 219 216 213 212 210 210 210
271 267 249 276 299 290 291 288 274 281 280 275 276 278 274 267 277 282 270 272 276 270 273 280 278 282 293 296 294 283 246 190 12 15 307 297 291 294 298 297 289 279 275 269 265 267 266 264 264 262 262 262 259 258 255 252 250 248 246 244 242 241 240 238 237 236 236 235 234 234 236 232 227 224 224 225 225 224 224 224 221 216 212 210 210 211
248 256 259 281 290 281 290 289 279 288 290 298 302 293 290 287 285 288 283 278 274 271 280 289 282 281 292 290 272 257 208 211 312 319 311 304 297 294 293 294 292 284 280 278 273 272 271 268 266 265 264 263 259 257 256 254 252 250 248 246 244 241 239 238 237 236 237 238 236 234 235 233 227 224 225 228 228 227 226 227 227 223 216 212 210 211
248 259 262 274 284 281 281 285 310 310 300 319 320 292 295 303 299 294 291 284 275 275 284 289 282 278 284 285 251 235 231 262 300 312 309 307 305 302 297 295 293 287 282 281 278 275 273 270 268 266 264 263 260 257 257 255 253 252 249 247 245 242 240 239 237 237 237 238 237 234 234 234 229 227 228 230 230 229 228 228 227 227 223 216 212 212
239 257 268 281 283 275 271 280 347 331 309 321 324 307 301 298 297 295 291 285 276 277 285 279 262 256 260 273 281 233 225 275 307 314 312 310 309 308 305 301 298 293 286 281 278 276 276 273 270 267 264 263 260 258 258 256 253 252 251 248 245 243 241 239 238 238 237 238 237 235 234 234 232 231 230 230 231 231 230 228 227 227 227 223 217 214
248 267 271 284 282 269 269 287 344 334 319 315 321 322 311 296 298 301 294 287 276 273 296 276 217 189 222 249 282 283 269 298 310 312 312 312 312 310 306 302 298 295 292 287 282 279 277 275 273 269 265 263 261 259 258 257 254 252 251 250 247 244 243 240 237 237 238 237 237 236 235 234 233 233 232 231 232 233 231 228 228 228 228 226 221 218
245 260 271 285 288 281 290 297 305 318 316 315 324 329 319 303 304 306 296 289 281 270 291 262 206 206 286 258 259 291 299 307 311 310 311 314 314 310 307 303 299 296 293 290 286 282 279 277 276 273 267 264 261 260 259 257 255 253 251 250 248 246 244 241 238 237 237 237 237 237 236 234 233 233 233 233 233 234 232 229 228 228 228 227 224 221
234 251 272 285 292 301 305 289 278 297 309 311 312 307 299 297 299 302 300 295 298 286 271 266 221 239 288 275 272 297 306 309 309 309 314 317 316 314 310 307 303 298 294 291 288 285 282 281 278 275 270 265 262 260 260 258 256 254 252 250 249 247 244 241 239 238 238 238 237 238 238 236 235 233 233 233 232 234 233 230 228 228 228 228 226 223
230 239 250 266 289 300 298 283 270 281 299 303 305 300 288 298 304 302 317 319 302 274 254 289 321 290 255 266 292 305 311 315 314 315 320 322 321 319 315 311 307 302 297 293 290 288 286 284 281 276 271 266 263 261 260 258 256 255 253 251 249 248 245 242 241 240 239 239 238 237 237 238 237 235 233 232 233 233 233 232 230 229 228 228 227 225
233 225 234 249 276 297 301 292 270 265 290 305 318 322 315 324 322 306 330 344 320 309 324 315 332 332 260 253 294 318 327 330 327 326 327 326 326 324 321 317 313 308 303 299 294 290 287 284 281 277 272 268 264 262 260 258 257 255 253 251 250 249 246 242 241 242 240 239 239 237 237 238 238 237 234 233 233 233 233 232 232 230 228 228 229 228
234 229 243 240 252 298 312 314 291 272 297 314 331 337 333 334 332 309 315 337 287 308 339 342 351 5 348 277 307 328 336 335 332 332 331 329 329 329 327 324 321 317 314 310 304 299 293 287 283 278 274 271 266 263 260 258 256 255 252 251 250 249 248 242 240 241 240 240 239 238 237 237 238 238 236 234 232 232 232 231 232 231 229 228 230 230
238 241 247 238 246 292 313 323 322 310 309 319 332 337 338 331 321 314 310 325 305 308 343 357 343 344 322 307 334 338 336 336 336 335 335 333 332 332 331 330 327 324 322 318 313 309 303 297 291 283 276 271 268 264 260 257 256 254 253 251 249 249 248 244 240 239 239 240 239 238 237 236 238 238 236 235 234 233 232 231 232 232 230 230 231 230
252 252 245 254 266 283 309 322 322 312 302 313 330 332 339 336 324 328 332 335 331 321 330 333 323 322 281 283 327 337 335 340 340 335 337 337 335 334 335 335 333 328 326 322 317 315 311 305 300 293 283 275 270 266 261 257 254 253 253 252 249 248 247 245 241 239 239 239 239 238 236 235 237 238 236 236 234 233 234 234 233 232 231 231 230 229
256 257 250 265 271 277 298 310 319 316 298 302 318 321 334 332 316 313 314 322 326 318 312 313 324 337 294 277 310 330 333 337 337 334 335 337 336 336 335 335 335 331 328 325 320 317 314 311 306 300 293 283 274 268 263 258 253 251 252 251 249 248 247 245 243 241 240 240 240 238 235 235 239 239 237 236 235 232 233 236 234 231 231 231 230 231
258 263 271 272 260 269 292 293 308 321 306 299 309 316 323 318 311 302 288 293 298 297 300 302 310 316 303 300 311 327 336 334 334 334 334 335 335 335 334 333 333 332 330 328 324 320 316 313 310 306 300 291 280 270 264 260 255 251 250 250 249 247 246 245 244 242 241 241 241 239 237 238 240 240 237 235 235 234 234 236 237 233 231 232 233 234
275 265 271 274 259 256 280 281 289 310 312 306 311 317 305 296 305 304 295 294 289 293 304 303 284 284 291 305 312 328 336 332 334 335 333 334 335 334 332 332 332 332 331 330 328 325 319 314 311 308 304 298 288 275 265 260 257 252 249 247 248 246 245 245 245 244 242 241 241 240 240 240 240 240 238 236 236 236 234 236 239 236 233 234 237 236
285 270 267 279 275 265 271 276 281 292 309 310 304 311 302 292 303 306 301 303 299 302 307 295 275 287 300 310 319 330 332 328 330 332 330 332 333 331 330 331 332 332 330 330 329 327 323 318 314 310 306 302 295 281 267 259 255 252 248 246 246 245 244 244 244 244 243 241 241 241 241 241 240 239 239 239 237 237 236 236 239 238 236 236 237 237
290 276 273 283 290 290 281 280 285 284 297 306 296 305 309 297 300 304 298 296 297 299 301 295 289 293 304 310 316 326 328 325 326 326 326 327 328 329 329 330 332 331 330 330 330 329 327 323 319 313 308 304 300 289 270 259 254 251 249 247 246 245 244 244 243 243 243 242 241 241 241 240 240 239 239 239 238 238 237 237 238 239 238 237 237 238
295 279 280 281 292 303 283 274 298 300 298 303 298 302 310 301 296 297 292 291 298 298 295 296 296 293 299 306 312 320 324 323 324 324 323 323 325 328 328 328 329 330 330 330 330 331 330 328 323 317 310 305 302 294 275 260 253 250 249 247 246 245 244 243 243 242 243 242 241 241 241 240 240 239 240 240 239 238 239 238 238 239 239 238 238 239
309 295 295 289 295 297 264 264 300 310 302 302 298 295 299 301 302 297 291 293 302 299 290 292 296 294 299 304 309 315 318 319 323 323 321 321 324 327 327 327 328 329 331 332 332 332 332 331 327 321 313 306 304 297 278 261 254 250 249 248 246 245 244 243 243 243 244 243 242 242 242 241 240 239 239 240 239 239 240 240 240 239 239 239 239 240
318 300 296 297 297 280 262 277 304 308 301 298 295 293 292 297 302 297 295 298 300 297 290 291 293 291 298 305 309 314 316 317 321 322 321 322 323 324 326 327 327 329 331 333 333 333 334 334 330 325 318 311 307 300 281 262 255 251 249 249 248 245 244 242 242 243 244 245 244 244 244 243 242 240 239 240 241 240 241 241 241 239 238 239 239 240
317 299 299 303 291 269 276 298 311 307 301 290 290 304 301 299 301 297 295 295 295 295 293 292 292 289 297 306 308 314 316 316 319 321 322 324 324 324 327 327 326 329 331 332 334 335 337 337 336 332 324 317 313 306 287 264 257 254 250 249 249 247 245 243 242 244 246 246 246 245 245 245 244 243 240 241 242 241 241 241 241 240 239 238 239 240
314 306 314 308 295 285 289 303 311 308 305 295 301 311 305 303 305 300 295 290 289 295 296 292 291 292 299 306 308 314 316 315 318 321 322 323 324 325 328 327 327 329 330 333 337 338 339 340 340 338 333 325 320 312 295 272 263 260 254 249 249 250 247 245 244 246 248 249 248 247 246 245 246 245 243 241 242 242 241 241 241 241 240 239 239 240
306 306 313 307 306 308 304 305 310 310 308 303 305 308 305 306 310 306 301 293 291 302 301 294 293 297 304 308 311 314 313 313 318 321 320 322 324 327 330 328 328 330 332 336 339 340 340 342 343 343 340 334 329 320 304 283 271 268 261 253 250 250 250 248 247 247 249 250 248 247 246 246 246 246 246 243 243 243 241 241 242 242 241 240 239 240
303 302 300 297 299 303 301 302 305 307 305 302 301 301 301 305 309 306 300 297 300 304 301 299 303 304 307 312 314 313 311 314 319 320 320 323 325 327 329 327 329 331 333 336 339 340 340 343 346 346 343 338 334 329 317 297 280 273 268 260 254 252 251 250 248 249 250 251 249 247 246 246 246 246 247 246 244 244 243 241 240 240 241 240 240 241
307 302 301 299 298 300 300 299 302 303 301 299 298 296 296 298 302 301 296 299 304 301 299 309 314 309 309 313 314 314 316 320 321 319 321 325 326 326 327 328 330 333 335 337 339 341 342 344 347 348 344 338 334 333 327 312 295 284 275 267 261 257 255 254 252 251 252 253 251 249 247 247 247 246 247 247 246 245 244 242 241 240 241 241 240 242
311 300 303 303 301 304 304 301 302 300 297 298 298 296 296 294 293 293 291 295 301 298 299 309 313 309 308 312 315 319 323 324 320 319 322 323 323 326 328 329 332 334 336 338 339 342 344 345 347 347 344 339 336 335 332 323 309 296 285 275 269 263 260 258 255 252 253 253 252 251 250 249 249 247 247 247 247 246 245 244 243 242 243 242 240 241
313 309 315 314 309 308 305 302 302 299 296 298 297 296 299 297 292 289 288 293 298 296 299 306 309 308 308 313 319 324 327 326 319 318 321 320 322 326 329 331 334 336 337 338 340 343 345 347 349 348 344 340 338 337 333 327 319 307 293 282 274 269 263 260 257 254 254 253 253 252 251 250 249 249 248 247 247 247 246 244 244 244 244 243 242 242
310 315 323 321 313 310 309 307 306 301 297 297 297 297 297 296 294 289 287 292 296 297 302 305 306 307 312 320 325 327 327 325 321 321 322 321 323 327 330 333 336 337 338 338 340 343 346 347 349 350 347 343 340 337 334 330 325 318 306 289 277 271 267 261 258 257 256 255 254 253 252 250 249 250 250 248 248 248 247 245 245 245 245 244 244 244
299 308 316 316 312 314 319 319 315 309 303 298 297 295 289 289 293 292 290 293 296 298 302 302 303 309 318 326 328 328 327 326 326 327 326 323 325 328 331 334 335 336 337 338 339 343 346 347 349 350 348 345 341 337 335 333 328 325 318 301 281 273 269 263 261 261 260 258 256 255 254 253 252 252 252 251 250 249 247 245 245 246 246 245 245 245
296 303 311 314 314 315 319 321 320 317 312 308 309 308 295 285 290 294 291 291 295 297 297 301 307 312 320 328 329 327 327 328 329 329 328 328 330 331 331 332 334 335 336 337 339 342 346 348 349 350 348 347 345 340 336 336 332 329 327 316 293 277 273 269 267 268 266 263 261 259 257 256 256 255 254 253 252 250 248 246 245 246 247 246 245 245
295 299 305 310 310 311 315 317 313 312 315 322 329 327 316 299 294 296 293 292 296 297 295 299 305 310 321 331 330 326 327 329 329 331 334 335 333 332 332 333 334 335 335 337 339 342 346 348 349 349 349 349 350 345 339 337 335 332 331 326 308 288 280 277 275 275 273 269 266 262 260 259 260 259 256 255 254 253 251 248 246 246 246 247 247 245
293 299 303 306 306 309 316 318 312 311 319 324 326 327 323 313 307 305 302 298 295 294 294 297 304 313 325 330 329 328 328 329 330 333 337 338 336 334 334 334 335 336 335 337 338 342 347 348 348 349 349 350 352 349 343 340 337 334 333 331 319 302 289 284 282 279 278 274 269 266 266 265 263 260 258 257 256 255 253 251 249 247 246 246 247 246
284 293 299 303 305 308 314 314 312 316 320 316 317 324 323 317 314 312 310 308 300 293 296 300 305 314 323 326 328 329 328 328 332 337 340 340 338 337 336 335 336 337 337 337 338 342 347 348 348 348 347 350 353 351 347 344 340 336 334 332 327 316 303 295 290 286 283 278 274 272 272 270 267 264 261 259 258 257 255 252 251 249 247 247 247 248
275 285 294 299 304 308 309 309 310 313 314 312 315 322 323 321 323 320 316 317 315 305 303 305 308 314 320 325 328 328 326 326 329 340 344 341 338 337 337 336 335 336 338 339 339 342 346 347 347 347 347 350 353 352 349 346 342 338 336 333 329 324 316 308 302 296 290 284 279 277 276 274 270 267 264 262 260 259 257 253 251 251 250 248 247 248
270 277 285 293 300 305 308 309 310 313 317 316 312 318 323 324 327 325 319 318 316 311 312 314 315 317 320 326 328 327 327 326 321 329 338 339 336 335 336 336 335 335 339 341 339 342 345 345 346 349 348 349 352 353 351 348 344 340 338 335 331 326 321 316 311 306 299 291 284 280 279 277 273 269 266 263 261 261 258 255 253 252 251 249 247 248
267 273 279 285 290 295 300 303 304 309 317 317 309 314 321 322 323 322 319 318 314 315 322 321 320 322 324 327 328 326 326 326 320 323 332 334 333 333 335 336 335 335 338 340 341 343 344 343 346 349 348 349 352 354 353 351 348 344 340 337 333 329 324 319 316 311 305 298 290 284 280 277 274 272 269 264 262 261 259 257 255 253 252 250 248 247
267 272 274 276 282 286 290 295 297 301 308 310 304 308 318 325 325 319 316 317 314 318 324 320 320 326 327 329 330 328 328 326 322 324 329 330 330 333 335 335 335 335 338 342 344 344 342 342 344 346 347 349 352 352 352 352 351 349 344 339 335 332 328 323 319 315 310 304 297 290 283 277 274 272 270 266 263 261 260 259 257 255 254 252 250 248
267 271 271 274 280 282 281 286 291 296 305 307 296 296 313 322 318 312 313 317 315 319 323 317 317 323 327 328 330 330 329 328 324 325 328 329 330 332 333 334 334 335 338 341 342 341 341 342 343 343 345 347 348 349 350 351 351 351 348 344 339 335 332 328 324 321 316 310 304 297 288 281 276 273 270 267 264 262 261 261 260 257 256 254 252 250
267 268 269 272 278 281 282 286 289 294 304 306 291 290 306 311 311 310 311 311 310 313 313 312 315 322 324 325 327 328 327 327 326 327 329 330 331 332 332 333 334 334 337 339 339 339 340 340 341 341 343 344 344 345 346 346 348 349 348 346 343 338 335 333 330 327 322 317 312 306 297 287 278 272 268 267 266 264 263 263 262 260 257 256 254 252
271 269 270 270 271 274 276 281 287 293 301 301 293 293 296 298 306 312 309 306 308 309 309 310 316 321 320 319 323 325 325 324 326 329 330 330 331 331 332 334 334 334 336 337 336 338 339 338 338 339 340 341 341 341 341 342 342 343 343 343 342 340 338 335 333 332 329 325 320 315 309 299 285 273 267 267 268 266 264 264 264 262 260 257 256 255
271 272 274 275 274 273 273 277 284 290 290 286 288 292 291 288 295 303 304 303 305 307 307 307 311 315 316 317 320 322 322 323 326 327 327 328 330 330 331 333 334 335 335 335 336 338 338 336 336 337 337 338 338 338 339 339 338 338 338 338 338 338 338 336 335 335 333 332 328 323 319 313 300 283 272 269 269 268 267 267 266 265 263 261 259 258
272 274 276 278 277 276 279 283 283 281 279 278 280 285 286 285 288 292 295 297 298 300 303 303 304 309 314 317 318 318 319 322 324 324 324 326 327 328 329 331 332 333 333 334 336 337 336 336 335 335 335 336 336 336 337 336 336 336 336 335 334 334 335 335 335 335 335 334 333 330 326 322 313 299 286 278 273 271 270 271 270 269 267 265 263 262
275 275 273 275 277 277 278 279 278 280 285 285 282 283 284 285 287 289 289 290 292 295 298 300 302 306 310 313 315 315 317 320 320 320 322 324 324 326 328 329 330 331 331 333 335 336 336 336 335 335 335 335 335 336 336 335 335 335 334 334 333 332 332 333 333 333 333 333 332 332 331 326 319 311 302 291 283 277 274 273 273 272 270 269 267 265
279 280 275 274 277 279 278 276 276 281 286 287 286 286 285 283 285 287 286 286 288 291 294 296 301 304 306 309 313 315 316 317 316 316 318 320 321 324 326 327 328 328 328 330 332 333 334 335 335 336 337 337 337 337 337 336 336 336 335 334 333 332 332 331 331 330 330 330 329 330 331 328 322 315 309 301 293 287 282 278 276 275 273 272 270 268
282 284 279 275 275 277 278 279 278 280 282 282 283 286 285 282 280 282 283 284 284 286 288 291 295 298 299 304 310 314 314 314 314 315 316 316 318 321 323 324 326 326 326 328 330 330 332 333 334 336 338 338 339 339 338 337 337 336 336 334 334 333 332 331 330 329 328 328 327 327 328 328 325 320 314 307 301 296 291 286 283 280 277 275 273 272
282 282 280 279 278 276 277 280 281 280 280 280 281 283 285 284 281 280 281 282 282 282 284 286 289 292 295 299 304 308 310 311 312 313 313 313 315 318 320 322 322 322 324 326 326 327 329 330 332 334 336 337 339 340 339 339 337 336 336 335 335 334 332 331 330 329 328 327 326 326 325 325 323 321 317 312 307 303 298 295 291 287 283 280 278 277
279 279 280 280 278 276 277 280 282 283 283 283 284 285 286 287 286 283 281 282 281 281 281 283 286 289 293 295 298 302 306 308 309 311 311 311 313 315 317 319 319 319 321 323 323 325 327 328 330 332 332 334 336 337 338 338 337 337 337 337 335 333 332 331 330 329 328 327 325 325 324 323 321 320 318 315 311 307 302 299 297 294 291 288 286 282
275 276 278 278 277 278 278 278 279 282 283 283 284 285 286 287 285 283 281 281 281 281 281 282 284 287 291 294 296 299 302 303 306 307 307 307 310 312 315 316 316 317 319 320 321 323 325 326 328 330 330 331 333 334 334 334 334 335 337 338 336 334 333 332 329 328 328 326 325 325 323 322 320 319 318 316 314 311 306 302 299 298 298 297 295 292